Regional Weather Roundup
Issued by NWS

Home | Current Version | Previous Version | Text Only | Print | Product List | Glossary Off
Versions: 1 2 3 4 5 6 7 8 9 10 11 12 13 14 15 16 17 18 19 20 21 22 23 24 25 26 27 28 29 30 31 32 33 34 35 36 37 38 39 40 41 42 43 44 45 46 47 48 49 50

000
ASUS43 KLSX 292207
RWRMO

WEATHER SUMMARY FOR MISSOURI
NATIONAL WEATHER SERVICE SPRINGFIELD MO
500 PM CDT FRI JUL 29 2016

NOTE: "FAIR" INDICATES FEW OR NO CLOUDS BELOW 12,000 FEET WITH NO
       SIGNIFICANT WEATHER AND/OR OBSTRUCTIONS TO VISIBILITY.
       CURRENT SKY AND/OR WEATHER CONDITIONS ARE NOT AVAILABLE FOR
       CHILLICOTHE AND FARMINGTON.

MOZ001>031-035>038-043-044-053-054-292300-
...NORTHERN AND WESTERN MISSOURI...

CITY           SKY/WX    TMP DP  RH WIND       PRES   REMARKS
KANSAS CTY INT PTSUNNY   82  63  52 N8        29.98F
KANSAS C DTWN  MOSUNNY   87  62  43 NW10      29.96S
LEE`S SUMMIT   SUNNY     85  64  49 N9        29.98S
ST JOSEPH      MOSUNNY   83  64  52 N10       29.99S
CHILLICOTHE      N/A     85  62  46 NW8       29.98S
KIRKSVILLE     MOSUNNY   81  61  50 NW10      29.98R

$$
MOZ066>068-077>081-088>096-101>105-292300-
...SOUTHWEST MISSOURI...

CITY           SKY/WX    TMP DP  RH WIND       PRES   REMARKS
SPRINGFIELD    CLOUDY    86  67  52 N13       29.96S
JOPLIN         SUNNY     86  69  56 N8        29.96F HX  90
BRANSON        CLOUDY    77  72  83 CALM      30.00S

$$
MOZ032>034-039>042-045>050-055>058-069>072-292300-
...CENTRAL MISSOURI...

CITY           SKY/WX    TMP DP  RH WIND       PRES   REMARKS
COLUMBIA       MOSUNNY   83  68  60 NW10      29.95S
JEFFERSON CITY MOSUNNY   85  69  58 NW7       29.93S
ROLLA          MOSUNNY   80  70  71 W7        29.95S
SEDALIA        SUNNY     84  69  60 N7        29.97S
WHITEMAN AFB   MOSUNNY   83  68  59 N7        29.96S
OSAGE BEACH    MOSUNNY   82  72  71 VRB3      29.96S

$$
MOZ051-052-059>065-292300-
...EAST CENTRAL MISSOURI...

CITY           SKY/WX    TMP DP  RH WIND       PRES   REMARKS
ST LOUIS INTL  PTSUNNY   86  69  56 N8        29.92S HX  90
SPIRIT OF STL  CLOUDY    87  69  54 VRB3      29.90F HX  91
ST CHARLES     MOSUNNY   85  70  60 NW7       29.90S

$$
MOZ072>076-082>087-097>100-106>115-292300-
...SOUTH CENTRAL AND SOUTHEAST MISSOURI...

CITY           SKY/WX    TMP DP  RH WIND       PRES   REMARKS
CAPE GIRARDEAU MOSUNNY   84  70  62 NW3       29.91R
POPLAR BLUFF   CLOUDY    77  70  79 N5        29.92R
WEST PLAINS    CLOUDY    71  67  87 NE3       30.00F

$$


USA.gov is the U.S. government's official web portal to all federal, state and local government web resources and services.